Gallup, NM

10:53 PM MDT on June 26, 2017 (GMT -0600)
Gallup Municipal

Weather History for KGUP - March, 2014

Change the Weather History Date:

Sunday, March 30, 2014

  Actual Average Record
Temperature  
Mean Temperature 47 °F -  
Max Temperature 66 °F 57 °F 75 °F (2015)
Min Temperature 30 °F 24 °F 7 °F (1987)
Degree Days  
Heating Degree Days 18    
Moisture  
Dew Point 12 °F    
Average Humidity 25    
Maximum Humidity 48    
Minimum Humidity 10    
Precipitation  
Precipitation 0.00 in - - ()
Sea Level Pressure  
Sea Level Pressure 29.78 in    
Wind  
Wind Speed 13 mph (WSW)    
Max Wind Speed 41 mph    
Max Gust Speed 61 mph    
Visibility 10 miles    
Events      
Averages and records for this station are not official NWS values.
T = Trace of Precipitation, MM = Missing Value Source: NWS Daily Summary

Daily Weather History Graph

Daily Weather History Graph

Search for Another Location

Airport or City:

Trip Planner

Search our weather history database for the weather conditions in past years. The results will help you decide how hot, cold, wet, or windy it might be!

Date:

Astronomy

Mar. 30, 2014 Rise Set
Actual Time 7:04 AM MDT 7:35 PM MDT
Civil Twilight 6:38 AM MDT 8:00 PM MDT
Nautical Twilight 6:08 AM MDT 8:30 PM MDT
Astronomical Twilight 5:38 AM MDT 9:01 PM MDT
Moon 6:52 AM MDT (3/30) 7:50 PM MDT (3/30)
Length of Visible Light 13h 21m
Length of Day
12h 30m
Waning Crescent, 0% of the Moon is Illuminated
Mar 30
Waning Crescent
Mar 30
New
Apr 7
First Quarter
Apr 15
Full
Apr 22
Last Quarter

Hourly Weather History & Observations

Time (MDT) Temp. Windchill Dew Point Humidity Pressure Visibility Wind Dir Wind Speed Gust Speed Precip Events Conditions
12:53 AM 37.9 °F 35.5 °F 12.0 °F 35% 29.90 in 10.0 mi West 3.5 mph - N/A   Clear
1:53 AM 41.0 °F 38.0 °F 12.9 °F 32% 29.86 in 10.0 mi WSW 4.6 mph - N/A   Clear
2:53 AM 39.9 °F 37.8 °F 14.0 °F 35% 29.84 in 10.0 mi WNW 3.5 mph - N/A   Clear
3:53 AM 37.9 °F 33.5 °F 15.1 °F 39% 29.83 in 10.0 mi NE 5.8 mph - N/A   Clear
4:53 AM 30.9 °F 26.2 °F 10.9 °F 43% 29.84 in 10.0 mi ENE 4.6 mph - N/A   Clear
5:53 AM 32.0 °F - 12.9 °F 45% 29.83 in 10.0 mi Calm Calm - N/A   Clear
6:53 AM 32.0 °F - 14.0 °F 48% 29.86 in 10.0 mi Calm Calm - N/A   Clear
7:53 AM 32.0 °F - 12.9 °F 45% 29.91 in 10.0 mi Calm Calm - N/A   Clear
8:53 AM 44.1 °F - 17.1 °F 34% 29.85 in 10.0 mi Calm Calm - N/A   Clear
9:53 AM 54.0 °F - 12.9 °F 20% 29.80 in 10.0 mi SSW 15.0 mph - N/A   Clear
10:53 AM 59.0 °F - 12.0 °F 16% 29.77 in 10.0 mi SW 19.6 mph - N/A   Clear
11:53 AM 62.1 °F - 14.0 °F 15% 29.73 in 10.0 mi SW 25.3 mph 34.5 mph N/A   Clear
12:53 PM 62.1 °F - 14.0 °F 15% 29.71 in 10.0 mi SW 24.2 mph 36.8 mph N/A   Clear
1:53 PM 64.9 °F - 14.0 °F 14% 29.65 in 10.0 mi WSW 38.0 mph 49.5 mph N/A   Partly Cloudy
2:53 PM 64.0 °F - 14.0 °F 14% 29.64 in 10.0 mi WSW 32.2 mph 54.1 mph N/A   Partly Cloudy
3:53 PM 61.0 °F - 14.0 °F 16% 29.65 in 10.0 mi SW 38.0 mph 55.2 mph N/A   Clear
4:53 PM 63.0 °F - 6.1 °F 11% 29.67 in 6.0 mi WSW 40.3 mph 59.8 mph N/A   Haze
5:23 PM 62.1 °F - 5.0 °F 10% 29.85 in 9.0 mi WSW 41.4 mph 61.0 mph N/A   Partly Cloudy
5:53 PM 61.0 °F - 3.9 °F 10% 29.67 in 10.0 mi SW 39.1 mph 52.9 mph N/A   Clear
6:53 PM 57.9 °F - 6.1 °F 13% 29.72 in 10.0 mi WSW 36.8 mph 48.3 mph N/A   Clear
7:53 PM 54.0 °F - 9.0 °F 17% 29.78 in 10.0 mi WSW 29.9 mph 40.3 mph N/A   Clear
8:53 PM 52.0 °F - 12.0 °F 20% 29.76 in 10.0 mi West 26.5 mph 38.0 mph N/A   Scattered Clouds
9:53 PM 46.9 °F - 9.0 °F 21% 29.76 in 10.0 mi West 16.1 mph - N/A   Clear
10:53 PM 43.0 °F 37.7 °F 10.9 °F 27% 29.78 in 10.0 mi West 9.2 mph - N/A   Clear
11:53 PM 37.0 °F 34.5 °F 10.0 °F 33% 29.80 in 10.0 mi SSW 3.5 mph - N/A   Clear